User: anonymous   Login
Location: CNYAC Observatory
(43.2150°N, 74.9500°W)
Time: 20:07:37
(UTC-05:00)
Language:

Meteor 1-22 Rocket - Orbit

View from above orbital plane
View from above orbital plane
View from above satellite
View from above satellite

Ground track
Ground track

The orbit data is extracted from the following two-line orbital elements,

1  8294U 75087B   17320.86902012 +.00000273 +00000-0 +14450-3 0  9990
2  8294 081.2159 233.6997 0106311 332.1187 027.4309 14.08597784166097
Epoch (UTC): 16 November 2017 20:51:23
Eccentricity: 0.0106311
inclination: 81.2159°
perigee height: 787 km
apogee height: 941 km
right ascension of ascending node: 233.6997°
argument of perigee: 332.1187°
revolutions per day: 14.08597784
mean anomaly at epoch: 27.4309°
orbit number at epoch: 16609

The dashed part of the orbit path shows where the satellite is in the earth's shadow,  

DLR